Location: Caltech
(34.1382°N, 118.1253°W)
Time: 17:26:52
(UTC-07:00)

Cosmos 1125 Rocket - Visible Passes

Search period start: 28 June 2017 00:00
Search period end: 08 July 2017 00:00
Orbit: 758 x 780 km, 74.0° (Epoch: 28 June)

Date Brightness Start Highest point End Pass type
(mag) Time Alt. Az. Time Alt. Az. Time Alt. Az.
28 Jun 4.7 02:08:43 34° E 02:08:43 34° E 02:13:01 10° NE visible
28 Jun 4.9 03:49:01 21° W 03:50:20 24° WNW 03:54:32 10° NNW visible
29 Jun 5.5 01:32:45 19° E 01:32:45 19° E 01:35:26 10° NE visible
29 Jun 4.1 03:13:02 40° W 03:13:26 40° WNW 03:18:24 10° N visible
30 Jun 3.6 02:37:03 69° NW 02:37:03 69° NW 02:41:56 10° NNE visible
01 Jul 4.2 02:01:01 51° NE 02:01:01 51° NE 02:05:10 10° NNE visible
01 Jul 5.5 03:41:18 13° WNW 03:42:27 14° WNW 03:45:07 10° NNW visible
02 Jul 5.1 01:24:58 28° ENE 01:24:58 28° ENE 01:28:06 10° NE visible
02 Jul 5.0 03:05:15 23° WNW 03:05:25 24° WNW 03:09:38 10° NNW visible
03 Jul 5.7 00:48:53 16° ENE 00:48:53 16° ENE 00:50:32 10° NE visible
03 Jul 4.4 02:29:10 39° NW 02:29:10 39° NW 02:33:30 10° N visible
04 Jul 4.2 01:53:03 50° N 01:53:03 50° N 01:57:01 10° NNE visible
05 Jul 4.7 01:16:56 38° NE 01:16:56 38° NE 01:20:16 10° NNE visible
05 Jul 5.7 02:57:12 14° WNW 02:57:33 14° WNW 03:00:12 10° NNW visible
06 Jul 5.3 00:40:46 24° NE 00:40:46 24° NE 00:43:11 10° NE visible
06 Jul 5.2 02:21:03 23° NW 02:21:03 23° NW 02:24:44 10° NNW visible
07 Jul 5.8 00:04:35 14° ENE 00:04:35 14° ENE 00:05:37 10° NE visible
07 Jul 4.8 01:44:51 35° NW 01:44:51 35° NW 01:48:35 10° N visible
